Zurück zum Katalog

INTELSAT 805

AktivKommunikationGEO
NORAD 25371·PAYLOAD· XX

Gestartet Jun 18, 1998 von Cape Canaveral Space Force Station

Loading…

TLE

AktuellSource: Space-Track

Epoche: Sep 11, 2026, 02:05 UTC

1 25371U 98037A   26254.08714347  .00000002  00000-0  00000-0 0  9990
2 25371   8.0415  65.0102 0025036 176.5544 163.1585  0.99470629103212

Verfolge INTELSAT 805 in Echtzeit mit AllMySat

Download on the App Store